Weather History for Louisville Bowman, KY

Change the Weather History Date:

Sunday, August 11, 2013

  Actual Average Record
Temperature  
Mean Temperature 81 °F 78 °F  
Max Temperature 89 °F 88 °F 98 °F (2005)
Min Temperature 72 °F 69 °F 53 °F (1962)
Degree Days  
Heating Degree Days 0 0  
Month to date heating degree days 0 0  
Since 1 June heating degree days 0 3  
Since 1 July heating degree days 0 0  
Cooling Degree Days 16 13  
Month to date cooling degree days 133 143  
Year to date cooling degree days 961 993  
Since 1 June cooling degree days 775 846  
Growing Degree Days 30 (Base 50)    
Moisture  
Dew Point 69 °F    
Average Humidity 70    
Maximum Humidity 94    
Minimum Humidity 46    
Precipitation  
Precipitation T in 0.10 in 2.15 in (1974)
Month to date precipitation 0.95 1.28  
Year to date precipitation 34.33 29.51  
Sea Level Pressure  
Sea Level Pressure 30.07 in    
Wind  
Wind Speed 3 mph (WNW)    
Max Wind Speed 13 mph    
Max Gust Speed 18 mph    
Visibility 8 miles    
Events Rain    
T = Trace of Precipitation, MM = Missing Value Source: NWS Daily Summary

Daily Weather History Graph

Daily Weather History Graph

Search for Another Location

Airport:

Trip Planner

Search our weather history database for the weather conditions in past years. The results will help you decide how hot, cold, wet, or windy it might be!

Date:

Astronomy

Aug. 11, 2013 Rise Set
Actual Time 6:54 AM EDT 8:40 PM EDT
Civil Twilight 6:25 AM EDT 9:09 PM EDT
Nautical Twilight 5:51 AM EDT 9:43 PM EDT
Astronomical Twilight 5:14 AM EDT 10:20 PM EDT
Moon 11:36 AM EDT (8/11) 11:01 PM EDT (8/11)
Length of Visible Light 14h 43m
Length of Day
13h 46m
Waxing Crescent, 22% of the Moon is Illuminated
Aug 11
Waxing Crescent
Aug 14
First Quarter
Aug 20
Full
Aug 28
Last Quarter
Sep 5
New

Hourly Weather History & Observations

Time (EDT) Temp. Heat Index Dew Point Humidity Pressure Visibility Wind Dir Wind Speed Gust Speed Precip Events Conditions
12:53 AM 75.9 °F - 73.0 °F 91% 30.08 in 7.0 mi South 3.5 mph - N/A   Overcast
1:53 AM 77.0 °F - 73.0 °F 88% 30.07 in 6.0 mi Calm Calm - N/A   Overcast
2:53 AM 75.9 °F - 73.0 °F 91% 30.07 in 6.0 mi Calm Calm - N/A   Overcast
3:53 AM 75.0 °F - 73.0 °F 94% 30.06 in 4.0 mi Calm Calm - N/A   Mostly Cloudy
4:53 AM 73.9 °F - 72.0 °F 93% 30.07 in 4.0 mi Calm Calm - N/A   Overcast
5:53 AM 73.9 °F - 72.0 °F 93% 30.06 in 4.0 mi Calm Calm - N/A   Overcast
6:53 AM 75.0 °F - 72.0 °F 90% 30.08 in 4.0 mi Calm Calm - N/A   Overcast
7:53 AM 75.0 °F - 73.0 °F 94% 30.09 in 3.0 mi Calm Calm - N/A   Overcast
8:53 AM 75.9 °F - 71.1 °F 85% 30.10 in 3.0 mi South 3.5 mph - N/A   Haze
9:53 AM 79.0 °F - 72.0 °F 79% 30.09 in 6.0 mi Calm Calm - N/A   Haze
10:53 AM 82.0 °F 86.3 °F 71.1 °F 69% 30.09 in 10.0 mi Calm Calm - N/A   Partly Cloudy
11:24 AM 82.4 °F 86.3 °F 69.8 °F 66% 30.11 in 10.0 mi Calm Calm - N/A   Mostly Cloudy
11:41 AM 84.2 °F 88.4 °F 69.8 °F 62% 30.11 in 10.0 mi NNW 4.6 mph - N/A   Overcast
11:53 AM 82.0 °F 85.5 °F 69.1 °F 65% 30.09 in 10.0 mi Calm Calm - 0.00 in Rain Light Rain
12:53 PM 84.0 °F 87.0 °F 68.0 °F 58% 30.09 in 10.0 mi NW 4.6 mph - 0.00 in   Mostly Cloudy
1:53 PM 87.1 °F 89.2 °F 66.0 °F 49% 30.08 in 10.0 mi NNW 6.9 mph - N/A   Partly Cloudy
2:53 PM 87.1 °F 88.9 °F 64.9 °F 48% 30.07 in 10.0 mi West 9.2 mph - N/A   Partly Cloudy
3:53 PM 87.1 °F 89.9 °F 66.9 °F 51% 30.05 in 10.0 mi NNW 10.4 mph - N/A   Mostly Cloudy
4:53 PM 88.0 °F 90.7 °F 66.9 °F 49% 30.04 in 10.0 mi NW 8.1 mph - N/A   Partly Cloudy
5:53 PM 86.0 °F 88.8 °F 66.9 °F 53% 30.03 in 10.0 mi WNW 9.2 mph - N/A   Partly Cloudy
6:53 PM 84.9 °F 87.6 °F 66.9 °F 55% 30.04 in 10.0 mi NW 8.1 mph - N/A   Partly Cloudy
7:53 PM 84.9 °F 86.6 °F 64.9 °F 51% 30.04 in 10.0 mi NW 5.8 mph - N/A   Clear
8:53 PM 80.1 °F 81.9 °F 64.9 °F 60% 30.05 in 10.0 mi NW 3.5 mph - N/A   Clear
9:53 PM 79.0 °F - 66.0 °F 64% 30.07 in 10.0 mi Calm Calm - N/A   Clear
10:53 PM 75.9 °F - 66.9 °F 74% 30.08 in 10.0 mi Calm Calm - N/A   Partly Cloudy
11:53 PM 73.9 °F - 66.0 °F 76% 30.08 in 10.0 mi Calm Calm - N/A   Clear